Regional Weather Roundup
Issued by NWS

Home | Current Version | Previous Version | Text Only | Print | Product List | Glossary Off
Versions: 1 2 3 4 5 6 7 8 9 10 11 12 13 14 15 16 17 18 19 20 21 22 23 24 25 26 27 28 29 30 31 32 33 34 35 36 37 38 39 40 41 42 43 44 45 46 47 48 49 50

000
ASUS45 KTFX 260504
RWRMT
MONTANA HOURLY WEATHER ROUNDUP
NATIONAL WEATHER SERVICE GREAT FALLS MT
1004 PM MST SUN JAN 25 2015

NOTE: "FAIR" INDICATES FEW OR NO CLOUDS BELOW 12000 FEET WITH NO
SIGNIFICANT WEATHER AND/OR OBSTRUCTIONS TO VISIBILITY.

* THESE STATIONS ARE NOT UNDER NWS QUALITY CONTROL. THEY DO NOT
   REPORT WEATHER SUCH AS PRECIPITATION OR FOG.

MTZ001>007-043-260600-
WEST OF THE DIVIDE
CITY           SKY/WX    TMP DP  RH WIND       PRES   REMARKS
KALISPELL      FOG       28  28 100 CALM      30.17S VSB 3/4
MISSOULA       CLEAR     36  30  79 CALM      30.25S
BUTTE          PTCLDY    30  25  82 SE5       30.31S WCI  25
MULLAN PASS    CLEAR     41  27  58 S8        30.24F
* ANACONDA     CLEAR     50  25  38 SW17G23    N/A
* ESSEX        N/A       31  29  92 E2         N/A
* LINCOLN      N/A       35  28  76 NE3G9      N/A
* LOOKOUT PASS N/A       36  33  89 S1         N/A
* POLSON       N/A       44  29  56 S2         N/A
* RONAN APT    PTCLDY    37  37 100 N/A        N/A
* SEELEY LAKE  N/A       29  26  89 E1         N/A
* THOMP F APT  PTCLDY    27  24  88 N2         N/A
* YAAK HILL    N/A       37  35  92 N/A        N/A
$$

MTZ008-052>055-260600-
SOUTHWEST MONTANA
CITY           SKY/WX    TMP DP  RH WIND       PRES   REMARKS
BOZEMAN        CLOUDY    37  28  70 S3        30.26S
DILLON         PTCLDY    39  27  62 SW17      30.32S WCI  30
* W YELLOWSTON PTCLDY    30  29  96 N/A        N/A
* THREE FORKS  CLOUDY    32  32 100 N/A        N/A
* BOULDER HILL N/A       47  22  37 S7G12      N/A
* MONIDA PASS  N/A       23  23 100 SE6        N/A   WCI  16
* RAYNOLDS PAS N/A       29  12  49 SE18       N/A   WCI  17
* WHITEHALL    N/A       46  23  40 W8G17      N/A
* WISE RIVER   N/A       36  26  67 NW5G14     N/A   WCI  32
$$

MTZ009>010-012-014-046-048-049-054-260600-
EAST SLOPES AND CENTRAL MONTANA
CITY           SKY/WX    TMP DP  RH WIND       PRES   REMARKS
CUT BANK       PTCLDY    46  28  50 W18       30.02F
GREAT FALLS    CLOUDY    54  28  37 SW23G28   30.08F
HELENA         MOCLDY    41  30  65 E7        30.20S
MALMSTROM AFB  CLOUDY    52  30  43 SW17      30.09S
* DEARBORN     N/A       57  27  32 SW6G11     N/A
* EAST GLACIER N/A       48  27  44 SW15G22    N/A
* MONARCH      N/A       48  23  37 SW18G29    N/A
* PENDROY      N/A       49  29  46 W8         N/A
* ROGERS PASS  N/A       45  24  44 E9G19      N/A
* SWEET GRASS  N/A       47  29  50 W21G27     N/A
$$

MTZ011-013-016-021-035-040-045-047-050-051-260600-
NORTH CENTRAL MONTANA
CITY           SKY/WX    TMP DP  RH WIND       PRES   REMARKS
HAVRE          PTCLDY    43  34  71 SW14      29.96R
LEWISTOWN      MOCLDY    50  28  43 W7G16     30.06R
* N BAR RANCH  CLEAR     55  27  34 NW28G36   30.01R
* CHESTER      N/A       48  32  54 W7G13      N/A
* DENTON       N/A       47  30  52 SW17G24    N/A
* GEYSER       N/A       55  27  34 SW20G26    N/A
* JUDITH GAP   N/A       46  29  52 W17G22     N/A
* LOMA         N/A       49  33  54 W17G22     N/A
$$

MTZ017>020-022>027-061-062-260600-
NORTHEAST MONTANA
CITY           SKY/WX    TMP DP  RH WIND       PRES   REMARKS
GLASGOW        CLEAR     39  34  82 SW3       29.91S
GLENDIVE       PTCLDY    41  34  76 W9        29.93R
JORDAN         PTCLDY    41  34  76 W9        29.95R
SIDNEY         PTCLDY    43  36  76 W13       29.87S
WOLF POINT     CLEAR     37  34  89 W13       29.89F WCI  29
* BEAVER HILL  N/A       41  34  76 W11        N/A
* CIRCLE       N/A       41  36  82 W4         N/A
* LINDSAY DVD  N/A       44  35  71 W16G21     N/A
* NAVAJO       N/A       41  33  73 NW19G24    N/A
* SACO         N/A       38  32  79 W4         N/A
$$

MTZ028>042-056>058-260600-
SOUTHCENTRAL AND SOUTHEAST MONTANA
CITY           SKY/WX    TMP DP  RH WIND       PRES   REMARKS
BAKER          CLEAR     39  34  82 W13       29.92F WCI  31
BILLINGS       CLOUDY    52  28  40 SW14G24   30.07S
LIVINGSTON     CLOUDY    54  27  35 SW22G32   30.21R
MILES CITY     MOCLDY    43  34  71 W12       29.97R
* LAUREL APT   CLOUDY    57  30  36 SW11G22    N/A
* ROUNDUP APT  CLOUDY    57  28  33 SW31G41    N/A
* ALZADA       N/A       40  32  73 W7         N/A   WCI  35
* HYSHAM       N/A       47  26  44 W2         N/A
* LAME DEER    N/A       50  29  44 W14G24     N/A
* REED POINT   N/A       59  30  33 W9G23      N/A
* ROSCOE HILL  N/A       58  16  19 W9G20      N/A
$$

REGIONAL REPORTS...DAKOTAS
CITY           SKY/WX    TMP DP  RH WIND       PRES   REMARKS
WILLISTON      MOCLDY    43  34  71 W9G21     29.83R
DICKINSON      PTCLDY    43  34  71 W21       29.81S
CROSBY         CLEAR     39  36  89 W15       29.79R WCI  31
WATFORD CITY   CLEAR     39  36  89 SW14G20   29.80S WCI  31
BISMARCK       PTCLDY    36  30  79 CALM      29.78F
GRAND FORKS    CLOUDY    28  25  89 S18G31    29.67F WCI  15
FARGO          CLOUDY    28  21  75 S15       29.81F WCI  16
BUFFALO SD     PTCLDY    39  34  82 W12       29.86R WCI  32
RAPID CITY     PTCLDY    37  27  67 N5        29.95S WCI  33
$$

REGIONAL REPORTS...WYOMING/IDAHO/WASHINGTON
CITY           SKY/WX    TMP DP  RH WIND       PRES   REMARKS
GILLETTE       PTCLDY    41  30  65 W9        30.07S
SHERIDAN       CLOUDY    41  28  60 S6        30.07R
CODY           CLOUDY    55  23  29 W8G20     30.19R
YELLOWSTONE LA MOCLDY    28  27  96 W3        30.47S
SALMON         PTCLDY    23  19  85 SE3       30.42R
MULLAN PASS    CLEAR     41  27  58 S8        30.24S
SAND POINT     FOG       34  34 100 CALM      30.21S VSB M1/4
SPOKANE        FOG       39  39 100 NE7       30.17F VSB M1/4 WCI  34

$$




USA.gov is the U.S. government's official web portal to all federal, state and local government web resources and services.